Tracking 19792 objects as of 16-Jul-2019
HD Live streaming from Space Station
objects crossing your sky now

COSMOS 1275 DEB

Track COSMOS 1275 DEB now!
10-day predictions


NORAD ID: 20089
Int'l Code: 1981-053MQ
Perigee: 866.7 km
Apogee: 930.0 km
Inclination: 82.8 °
Period: 102.8 minutes
Semi major axis: 7269 km
RCS: 0.0116 m2 (small)
Launch date: June 4, 1981
Source: Commonwealth of Independent States (former USSR) (CIS)
Launch site: PLESETSK MISSILE AND SPACE COMPLEX (PKMTR)

Note: This is SATELLITE DEBRIS
aabbcc
Your satellite tracking list
Your tracking list is empty




NASA's NSSDC Master Catalog

Two Line Element Set (TLE):
1 20089U 81053MK  19197.08819948  .00000610  00000-0  39602-3 0  9990
2 20089  82.7530 237.6775 0043545 275.3650  84.2553 14.00736788379732
Source of the keplerian elements: AFSPC